[[{"header":{"parameterUnit":"m.s-1","parameterCategory":1,"la1":30.2992,"la2":30.254,"lo1":-89.0895,"lo2":-89.0443,"dy":0.0025,"dx":0.0025,"nx":19,"ny":19,"refTime":"2026-05-09T03:00:00:Z","depth":0,"parameterNumber":2,"parameterNumberName":"U-component_of_WINDS"},"data":[0,0,0,-2.4619,-2.4623,-2.4808,-2.4808,-2.5048,-2.5051,0,0,0,0,0,0,0,0,0,0,0,-2.4566,-2.4568,-2.4619,-2.4624,-2.4808,-2.4808,-2.5048,-2.5051,0,0,0,0,0,0,0,0,0,0,0,-2.4565,-2.4567,-2.4569,-2.4624,-2.4807,-2.4809,-2.5047,-2.4907,0,0,0,0,0,0,0,0,0,0,-2.4728,-2.468,-2.4567,-2.4569,-2.4625,-2.4807,-2.4809,-2.49,-2.4916,-2.4966,0,-2.501,0,-2.5034,-2.5067,-2.5068,0,0,0,-2.4623,-2.4667,-2.4715,-2.457,-2.4627,-2.4807,-2.4724,-2.4909,-2.4927,-2.4987,-2.5014,-2.5022,-2.5038,-2.5068,-2.507,-2.5358,-2.5359,0,0,-2.4613,-2.46,-2.4703,-2.4726,-2.4697,-2.4719,-2.473,-2.492,-2.4949,-2.5015,-2.5028,-2.5042,-2.507,-2.5072,-2.5357,-2.5358,0,0,0,-2.4584,-2.4593,-2.4637,-2.4716,-2.4749,-2.4724,-2.4737,-2.494,-2.4955,-2.5031,-2.5045,-2.5071,-2.5074,-2.5355,-2.5357,-2.5412,0,0,0,-2.4578,-2.4576,-2.4632,-2.4627,-2.4746,-2.4847,-2.4754,-2.4942,-2.4964,-2.5044,-2.5071,-2.5077,-2.5354,-2.5356,-2.5407,-2.544,0,0,0,-2.4554,-2.4574,-2.4601,-2.4626,-2.4704,-2.4844,-2.487,-2.4947,-2.4973,-2.5068,-2.5077,-2.5353,-2.5356,-2.5403,-2.5433,-2.5512,0,0,0,-2.4525,-2.4648,-2.4601,-2.4745,-2.4703,-2.4876,-2.4869,-2.4999,-2.5087,-2.5073,-2.5354,-2.5357,-2.5402,-2.5429,-2.5507,-2.5575,-2.5602,0,0,-2.4673,-2.4665,-2.4751,-2.4714,-2.4892,-2.4849,-2.5036,-2.513,-2.5151,-2.5288,-2.5295,-2.5409,-2.5433,-2.5511,-2.5759,-2.5781,0,0,0,-2.4794,-2.4855,-2.4905,-2.4987,-2.506,-2.5126,-2.5191,-2.5226,-2.5343,-2.5218,-2.5459,-2.5474,-2.552,-2.5553,-2.5571,-2.5611,-2.5372,-2.5372,-2.5371,-2.4987,-2.5006,-2.5148,-2.5189,-2.5269,-2.5335,-2.5402,-2.546,-2.5458,-2.5514,-2.5555,-2.5703,-2.5741,-2.5755,-2.5797,-2.5592,-2.5593,-2.5593,-2.5593,-2.5206,-2.5295,-2.5287,-2.5422,-2.5441,-2.5556,-2.5624,-2.5618,-2.5728,-2.5674,-2.5716,-2.5655,-2.5778,-2.5815,-2.5597,-2.5597,-2.5596,-2.5596,-2.5595,-2.5334,-2.538,-2.5419,-2.5539,-2.563,-2.5668,-2.5773,-2.5788,-2.5803,-2.5844,-2.5888,-2.5887,-2.5888,-2.5864,-2.5865,-2.5865,-2.5865,-2.5866,-2.5866,-2.5451,-2.5493,-2.5579,-2.5666,-2.572,-2.5794,-2.586,-2.5915,-2.5979,-2.5982,-2.5982,-2.5974,-2.5786,-2.5738,-2.5874,-2.5873,-2.5872,-2.5871,-2.587,-2.5666,-2.5619,-2.5752,-2.5806,-2.5909,-2.5997,-2.6015,-2.6124,-2.6171,-2.6223,-2.6205,-2.6064,-2.6058,-2.6043,-2.6004,-2.6201,-2.6201,-2.6201,-2.6201,-2.5773,-2.5771,-2.5909,-2.5994,-2.608,-2.6109,-2.6258,-2.6312,-2.636,-2.639,-2.6364,-2.6313,-2.6298,-2.6301,-2.6281,-2.6244,-2.6498,-2.6498,-2.6498,-2.5906,-2.5912,-2.6036,-2.6081,-2.6162,-2.6232,-2.6373,-2.6473,-2.6518,-2.6511,-2.6415,-2.6402,-2.632,-2.6292,-2.6282,-2.6251,-2.6184,0,0]},{"header":{"parameterUnit":"m.s-1","parameterCategory":1,"la1":30.2992,"la2":30.254,"lo1":-89.0895,"lo2":-89.0443,"dy":0.0025,"dx":0.0025,"nx":19,"ny":19,"refTime":"2026-05-09T03:00:00:Z","depth":0,"parameterNumber":3,"parameterNumberName":"V-component_of_WINDS"},"data":[0,0,0,4.4238,4.4242,4.4437,4.4437,4.4687,4.469,0,0,0,0,0,0,0,0,0,0,0,4.4184,4.4186,4.4238,4.4243,4.4437,4.4437,4.4687,4.469,0,0,0,0,0,0,0,0,0,0,0,4.4183,4.4186,4.4188,4.4243,4.4436,4.4437,4.4686,4.4539,0,0,0,0,0,0,0,0,0,0,4.435,4.4304,4.4185,4.4188,4.4245,4.4436,4.4437,4.4532,4.4548,4.4601,0,4.4651,0,4.4675,4.4707,4.4708,0,0,0,4.4239,4.4291,4.434,4.4188,4.4246,4.4436,4.4348,4.4541,4.4559,4.4623,4.4655,4.4664,4.4679,4.4708,4.471,4.5032,4.5034,0,0,4.4229,4.4221,4.4327,4.4352,4.4325,4.4342,4.4354,4.4552,4.4585,4.4656,4.467,4.4683,4.471,4.4712,4.5031,4.5033,0,0,0,4.42,4.4213,4.4258,4.4342,4.4377,4.4348,4.4362,4.4577,4.4592,4.4672,4.4686,4.4712,4.4715,4.5029,4.5031,4.5106,0,0,0,4.4193,4.4197,4.4253,4.425,4.4373,4.448,4.4382,4.4578,4.4601,4.4685,4.4712,4.4717,4.5027,4.503,4.51,4.5143,0,0,0,4.417,4.4194,4.4223,4.4249,4.4333,4.4477,4.4503,4.4583,4.4609,4.4708,4.4718,4.5026,4.503,4.5095,4.5134,4.5225,0,0,0,4.4142,4.4286,4.4224,4.439,4.4331,4.4522,4.4502,4.4645,4.4738,4.4713,4.5027,4.5031,4.5093,4.5129,4.5219,4.53,4.5333,0,0,4.4319,4.4307,4.4406,4.4356,4.4557,4.4493,4.4704,4.4797,4.4812,4.4957,4.4965,4.5102,4.5133,4.5224,4.5523,4.5549,0,0,0,4.4459,4.4529,4.4584,4.4674,4.4749,4.4817,4.4878,4.4912,4.5036,4.4886,4.516,4.5179,4.5232,4.5271,4.5294,4.534,4.5049,4.5048,4.5048,4.4697,4.4711,4.4874,4.4911,4.4998,4.506,4.5131,4.5187,4.5174,4.5239,4.5282,4.5462,4.5507,4.5524,4.5572,4.5326,4.5326,4.5327,4.5327,4.4958,4.5059,4.504,4.5191,4.5204,4.533,4.5394,4.5381,4.5499,4.543,4.5478,4.5402,4.5553,4.5595,4.5333,4.5332,4.5331,4.533,4.533,4.5115,4.5166,4.5206,4.5337,4.5436,4.5467,4.5582,4.5589,4.5596,4.5644,4.5689,4.5688,4.5687,4.5665,4.5666,4.5666,4.5667,4.5667,4.5668,4.5263,4.5306,4.5402,4.5494,4.5552,4.563,4.5693,4.575,4.5814,4.581,4.581,4.579,4.5565,4.5508,4.5678,4.5676,4.5675,4.5674,4.5673,4.5521,4.5464,4.5613,4.5672,4.578,4.5877,4.5885,4.5999,4.6047,4.6103,4.6074,4.5906,4.5894,4.5876,4.5829,4.6071,4.6071,4.6071,4.6071,4.5654,4.5649,4.5803,4.5896,4.5987,4.6009,4.6176,4.6226,4.6268,4.6298,4.6264,4.6202,4.6183,4.6182,4.6157,4.6113,4.6423,4.6423,4.6423,4.5813,4.5817,4.5959,4.6001,4.6085,4.6157,4.6313,4.6419,4.6454,4.6438,4.6321,4.6306,4.6206,4.6173,4.6153,4.6115,4.6035,0,0]}]]